Погода в Менхенгладбахе

Германия     51°11′27″N   6°26′32″E
темп.,
°C
ветер,
м/с
пор.,
м/с
влажн.,
%
обл.,
%
осадки,
мм/ч
давл.,
гПа
погр.,
м
16 сентября, чт
чт1623:00+16сз588545 0.1 1014469
02:00+16зсз4674100 0.1 1015665
05:00+12з379629 0.0 1016247
08:00+13з4793100 0.0 1016343
11:00+15з4785100 0.1 1017527
14:00+19сз466296 0.1 10171319
17:00+20сз455419 0.0 10171454
20:00+16сз247317 0.0 101779
17 сентября, пт
пт1723:00+14зсз238326 0.0 101845
02:00+13з22890 0.0 101836
05:00+12з12906 0.0 101726
08:00+13ююз228699 0.0 101771
11:00+15ююз1177100 0.0 1017184
14:00+18зюз1166100 0.0 1016450
17:00+19с1259100 0.0 1015800
20:00+16ссв227298 0.0 101517
18 сентября, сб
сб1823:00+15всв2380100 0.0 101546
02:00+14в1182100 0.0 101514
05:00+13в118599 0.0 101513
08:00+13в22865 0.0 101633
11:00+18в22660 0.0 1016569
14:00+21св22525 0.0 10151354
17:00+22св334410 0.0 10141693
20:00+17всв48610 0.0 1015191
19 сентября, вс
вс1923:00+15всв36780 0.0 1015125
02:00+14всв35820 0.0 101596
05:00+13всв358321 0.0 101487
08:00+13всв358260 0.0 1015117
11:00+18в346192 0.0 1016682
14:00+21всв3449100 0.0 10161899
17:00+19всв235698 0.0 1016349
20:00+19в2348100 0.0 101785
20 сентября, пн
пн2023:00+15вюв48591 0.0 1019208
02:00+13в24660 0.0 101989
05:00+12в33710 0.0 102066
08:00+12всв34755 0.0 102192
11:00+17вюв45565 0.0 1021631
14:00+21юв34435 0.0 10211800
17:00+20всв4546100 0.0 10201042
20:00+18вюв3651100 0.0 1022244